Location: Sommers-Bausch Observatory
(40.0037°N, 105.2635°W)
Time: 14:42:10
(UTC-06:00)

Amateur Radio Satellites - All Passes

Search period start: 23 May 2017 14:12
Search period end: 24 May 2017 14:12
Location: Sommers-Bausch Observatory, 40.0037°N, 105.2635°W

Satellite Date Start Highest point End Downlink Frequencies (MHz)
Time Altitude Azimuth
Oscar 19 23 May 14:20:04 14:24:56 40° 262° (W) 14:29:51 437.125/150
AO-85 23 May 14:34:46 14:38:47 65° 56° (ENE) 14:43:01 145.980
BEESAT 3 23 May 14:36:26 14:39:36 22° 48° (NE) 14:42:44 437.485
50 SAT 23 May 14:39:23 14:41:56 20° 291° (WNW) 14:44:29 437.505
ITUPSAT 1 23 May 14:47:32 14:49:08 11° 90° (E) 14:50:44 437.325
VELOX 1 23 May 14:48:56 14:51:23 15° 296° (WNW) 14:53:49 145.980
NO-84 23 May 15:08:40 15:09:54 11° 14° (NNE) 15:11:06 435.350 FM
Gurwin Techsat 1B 23 May 15:09:15 15:13:32 25° 265° (W) 15:17:51 435.225
ITAMSAT 1 23 May 15:13:31 15:18:32 55° 72° (ENE) 15:23:35 435.822/435.867
AO-7 23 May 15:17:41 15:25:53 70° 68° (ENE) 15:34:07 .
BEESAT 23 May 15:21:26 15:25:31 27° 96° (E) 15:29:35 436.000
O/OREOS (USA 219) 23 May 15:28:15 15:32:33 43° 254° (WSW) 15:36:47 437.305
UKube-1 23 May 15:35:22 15:38:17 18° 295° (WNW) 15:41:11 .
MOZHAYETS 4 23 May 15:35:27 15:39:01 21° 94° (E) 15:42:33
DX 1 23 May 15:36:36 15:38:30 13° 297° (WNW) 15:40:24 434.975-435.025
BEESAT 2 23 May 15:45:05 15:48:56 39° 53° (NE) 15:52:44 435.950
BEESAT 3 23 May 16:13:36 16:17:16 35° 245° (WSW) 16:20:53 437.485
AO-85 23 May 16:17:36 16:18:43 11° 251° (WSW) 16:19:50 145.980
ITUPSAT 1 23 May 16:22:37 16:27:26 71° 285° (WNW) 16:32:13 437.325
NO-84 23 May 16:45:02 16:48:28 36° 35° (NE) 16:51:37 435.350 FM
KKS-1 23 May 16:54:16 16:57:34 20° 94° (E) 17:00:53 437.445
ITAMSAT 1 23 May 16:55:00 16:58:19 17° 268° (W) 17:01:39 435.822/435.867
BEESAT 23 May 16:59:04 17:03:15 30° 292° (WNW) 17:07:24 436.000
DOVE 4 23 May 17:11:31 17:15:23 26° 70° (ENE) 17:19:05 437.250
MOZHAYETS 4 23 May 17:11:59 17:16:15 36° 289° (WNW) 17:20:29
AO-7 23 May 17:12:48 17:19:14 25° 266° (W) 17:25:43 .
BEESAT 2 23 May 17:23:38 17:26:23 18° 249° (WSW) 17:29:06 435.950
STARS 23 May 17:34:48 17:38:21 24° 96° (E) 17:41:53 437.465
XW-2D 23 May 17:36:54 17:39:54 23° 69° (ENE) 17:42:55 145.860 - 145.880
XW-2B 23 May 17:44:29 17:47:43 27° 70° (ENE) 17:50:58 145.730 - 145.750
CUBESAT XI-V 23 May 17:48:18 17:53:00 84° 282° (WNW) 17:57:36 437.345
XW-2C 23 May 17:57:35 18:01:08 39° 73° (ENE) 18:04:43 145.795 - 145.815
XW-2F 23 May 17:59:14 18:02:46 39° 73° (ENE) 18:06:21 145.980 - 146.000
NUDT-PHONESAT 23 May 18:09:01 18:12:30 40° 73° (ENE) 18:16:02 437.300
KAITUO 1B 23 May 18:12:35 18:16:11 46° 74° (ENE) 18:19:50 145.475/437.950
CUTE-I 23 May 18:23:00 18:28:16 74° 75° (ENE) 18:33:36 437.470
NO-84 23 May 18:23:06 18:25:47 21° 235° (SW) 18:28:19 435.350 FM
KKS-1 23 May 18:30:10 18:34:12 35° 290° (WNW) 18:38:13 437.445
LilacSat-2 23 May 18:31:31 18:35:19 70° 259° (W) 18:39:10 437.200
HO-68 23 May 18:33:57 18:40:12 34° 63° (ENE) 18:46:29 435.675
DOVE 4 23 May 18:48:50 18:52:58 30° 263° (W) 18:56:55 437.250
CUTE 1.7 + AOD 2 23 May 18:54:26 18:58:01 26° 69° (ENE) 19:01:36 437.475
CUBEBUG 2 23 May 18:58:55 19:00:59 14° 64° (ENE) 19:03:05 437.445
STARS 23 May 19:10:51 19:14:39 30° 291° (WNW) 19:18:27 437.465
XW-2D 23 May 19:10:56 19:13:59 23° 265° (W) 19:17:04 145.860 - 145.880
UWE-3 23 May 19:16:35 19:18:30 13° 64° (ENE) 19:20:25 435.000/436.395/437.385
XW-2B 23 May 19:19:06 19:21:53 19° 266° (W) 19:24:42 145.730 - 145.750
AAUSAT CUBESAT 2 23 May 19:25:30 19:28:18 18° 67° (ENE) 19:31:06 437.432
PCSat 23 May 19:26:52 19:31:26 29° 108° (ESE) 19:36:02 145.827
STRAND 1 23 May 19:27:08 19:30:48 19° 93° (E) 19:34:27 437.568
XW-2A 23 May 19:32:19 19:35:36 61° 76° (ENE) 19:38:56 145.665 - 145.685
XW-2C 23 May 19:33:37 19:35:30 13° 268° (W) 19:37:23 145.795 - 145.815
XW-2F 23 May 19:35:13 19:37:04 13° 268° (W) 19:38:57 145.980 - 146.000
NUDT-PHONESAT 23 May 19:45:07 19:46:36 12° 269° (W) 19:48:06 437.300
SEEDS 23 May 19:49:26 19:53:39 70° 76° (ENE) 19:57:54 437.485
KAITUO 1B 23 May 19:49:27 19:50:27 11° 269° (W) 19:51:27 145.475/437.950
Oscar 11 23 May 20:01:52 20:04:47 18° 66° (ENE) 20:07:42 .
CUTE-I 23 May 20:06:31 20:08:51 13° 270° (W) 20:11:12 437.470
HO-68 23 May 20:20:51 20:27:41 47° 260° (W) 20:34:35 435.675
AO-73 23 May 20:23:19 20:27:07 35° 71° (ENE) 20:31:02 145.935
CUTE 1.7 + AOD 2 23 May 20:30:11 20:33:45 25° 265° (W) 20:37:21 437.475
CUBEBUG 2 23 May 20:33:10 20:37:10 49° 261° (W) 20:41:15 437.445
ZACube-1 23 May 20:34:59 20:39:03 54° 74° (ENE) 20:43:14 437.345
UWE-3 23 May 20:50:24 20:54:27 53° 260° (W) 20:58:36 435.000/436.395/437.385
Tancredo 1 23 May 20:52:02 20:54:28 22° 133° (SE) 20:56:54 437.200
ISS 23 May 20:52:23 20:54:18 15° 130° (SE) 20:56:14 437.550
M-CUBED/EXP-1 PRIME 23 May 20:54:47 20:57:06 18° 100° (E) 20:59:22 437.505
AAUSAT CUBESAT 2 23 May 20:59:33 21:03:27 38° 262° (W) 21:07:23 437.432
STRAND 1 23 May 21:05:16 21:10:13 48° 289° (WNW) 21:15:08 437.568
EO-88 23 May 21:07:21 21:09:31 15° 67° (ENE) 21:11:42 145.990 - 145.960
PCSat 23 May 21:09:34 21:14:38 40° 306° (NW) 21:19:45 145.827
Oscar 11 23 May 21:36:30 21:40:35 40° 262° (W) 21:44:42 .
FO-29 23 May 21:46:45 21:51:02 18° 92° (E) 21:55:35 435.910
DELFI C3 23 May 21:47:46 21:51:45 73° 76° (ENE) 21:55:45 145.870
AO-73 23 May 22:00:37 22:03:29 18° 268° (W) 22:06:25 145.935
TIGRISAT 23 May 22:03:15 22:06:05 16° 92° (E) 22:08:57 435.000
PRISM 23 May 22:05:02 22:08:03 20° 95° (E) 22:11:03 437.425
ZACube-1 23 May 22:14:10 22:15:42 12° 270° (W) 22:17:14 437.345
ISS 23 May 22:27:13 22:30:28 58° 326° (NW) 22:33:44 437.550
Tancredo 1 23 May 22:27:14 22:30:06 36° 329° (NNW) 22:32:59 437.200
M-CUBED/EXP-1 PRIME 23 May 22:28:57 22:31:33 21° 296° (WNW) 22:34:05 437.505
UNISAT 6 23 May 22:32:53 22:37:07 36° 98° (E) 22:41:23 437.425
EO-88 23 May 22:39:37 22:42:55 32° 263° (W) 22:46:15 145.990 - 145.960
ESTCUBE 1 23 May 22:58:04 23:01:59 29° 69° (ENE) 23:05:55 437.505/2401.250
SO-50 23 May 23:10:19 23:14:44 49° 117° (ESE) 23:19:08 436.795
FO-29 23 May 23:30:08 23:36:25 75° 286° (WNW) 23:43:33 435.910
LO-87 23 May 23:33:06 23:36:36 57° 260° (W) 23:40:06 145.935 - 145.965
AIST 2D 23 May 23:34:18 23:36:51 18° 94° (E) 23:39:22 435.315
TIGRISAT 23 May 23:38:35 23:42:59 48° 287° (WNW) 23:47:27 435.000
PRISM 23 May 23:39:47 23:43:21 30° 290° (WNW) 23:46:53 437.425
EO-79 23 May 23:42:48 23:44:36 12° 91° (E) 23:46:23 145.935-145.965
Tancredo 1 24 May 00:05:23 00:06:34 12° 348° (NNW) 00:07:44 437.200
ISS 24 May 00:05:30 00:07:31 15° 344° (NNW) 00:09:31 437.550
VELOX 1 24 May 00:07:25 00:11:35 41° 72° (ENE) 00:15:45 145.980
UNISAT 6 24 May 00:10:04 00:13:35 22° 293° (WNW) 00:17:09 437.425
SPROUT 24 May 00:25:22 00:29:33 65° 75° (ENE) 00:33:46 437.525
NANOSAT C BR1 24 May 00:28:19 00:32:16 37° 98° (E) 00:36:13 145.865
POLYITAN 1 24 May 00:29:44 00:33:50 43° 99° (E) 00:37:54 437.675
ESTCUBE 1 24 May 00:34:57 00:38:44 26° 265° (W) 00:42:32 437.505/2401.250
QB50P2 24 May 00:38:08 00:42:21 60° 100° (E) 00:46:34 145.880/145.840
DUCHIFAT 1 24 May 00:40:40 00:44:45 46° 99° (E) 00:48:50 145.980
SO-50 24 May 00:51:57 00:55:26 21° 315° (NW) 00:58:55 436.795
UKube-1 24 May 00:52:16 00:56:03 31° 70° (ENE) 00:59:53 .
DX 1 24 May 00:53:08 00:57:18 47° 72° (ENE) 01:01:29 434.975-435.025
AIST 2D 24 May 01:07:04 01:10:02 24° 289° (WNW) 01:12:58 435.315
50 SAT 24 May 01:09:54 01:13:19 64° 259° (WSW) 01:16:46 437.505
BUGSAT 1 24 May 01:11:39 01:15:20 30° 97° (E) 01:19:01 437.445
YUBILEINY 24 May 01:15:03 01:23:08 45° 88° (E) 01:31:16 435.215
EO-79 24 May 01:16:30 01:20:39 53° 286° (WNW) 01:24:47 145.935-145.965
FO-29 24 May 01:18:07 01:20:40 13° 301° (WNW) 01:23:19 435.910
RS-15 24 May 01:38:29 01:48:26 32° 103° (ESE) 01:58:35 29.354- 29.394
Tancredo 1 24 May 01:42:35 01:43:26 11° 9° (N) 01:44:17 437.200
ISS 24 May 01:43:58 01:45:06 11° 5° (N) 01:46:14 437.550
VELOX 1 24 May 01:45:17 01:48:12 17° 267° (W) 01:51:06 145.980
Gurwin Techsat 1B 24 May 01:46:29 01:49:46 16° 91° (E) 01:53:01 435.225
ITUPSAT 1 24 May 01:53:32 01:55:56 14° 62° (ENE) 01:58:21 437.325
NANOSAT C BR1 24 May 02:04:46 02:07:41 18° 294° (WNW) 02:10:37 145.865
POLYITAN 1 24 May 02:06:35 02:09:15 16° 295° (WNW) 02:11:55 437.675
QB50P2 24 May 02:15:52 02:17:37 12° 297° (WNW) 02:19:22 145.880/145.840
DUCHIFAT 1 24 May 02:17:35 02:20:02 15° 295° (WNW) 02:22:28 145.980
BEESAT 24 May 02:27:08 02:31:15 30° 68° (ENE) 02:35:23 436.000
UKube-1 24 May 02:28:45 02:32:06 22° 265° (W) 02:35:27 .
DX 1 24 May 02:31:15 02:33:43 15° 268° (W) 02:36:10 434.975-435.025
Oscar 19 24 May 02:31:51 02:37:02 75° 103° (ESE) 02:42:10 437.125/150
MOZHAYETS 4 24 May 02:36:58 02:40:16 20° 66° (ENE) 02:43:34
BUGSAT 1 24 May 02:47:24 02:50:30 21° 292° (WNW) 02:53:37 437.445
YUBILEINY 24 May 03:11:59 03:19:57 39° 287° (WNW) 03:28:03 435.215
Tancredo 1 24 May 03:17:15 03:19:59 29° 28° (NNE) 03:22:43 437.200
ISS 24 May 03:19:46 03:22:31 24° 25° (NNE) 03:25:15 437.550
AO-7 24 May 03:21:11 03:27:24 23° 93° (E) 03:33:35 .
Gurwin Techsat 1B 24 May 03:24:51 03:30:05 60° 287° (WNW) 03:35:17 435.225
ITAMSAT 1 24 May 03:27:46 03:31:35 20° 94° (E) 03:35:23 435.822/435.867
ITUPSAT 1 24 May 03:28:28 03:33:11 66° 258° (WSW) 03:37:57 437.325
RS-15 24 May 03:47:42 03:59:49 75° 304° (NW) 04:12:17 29.354- 29.394
KKS-1 24 May 03:52:02 03:55:04 19° 65° (ENE) 03:58:07 437.445
O/OREOS (USA 219) 24 May 04:01:17 04:04:51 23° 102° (ESE) 04:08:26 437.305
BEESAT 24 May 04:04:55 04:08:58 27° 264° (W) 04:13:02 436.000
MOZHAYETS 4 24 May 04:12:47 04:17:06 41° 262° (W) 04:21:28
Oscar 19 24 May 04:13:06 04:15:41 14° 300° (WNW) 04:18:15 437.125/150
PCSat 24 May 04:14:59 04:19:16 23° 48° (NE) 04:23:31 145.827
STARS 24 May 04:31:04 04:34:16 20° 66° (ENE) 04:37:28 437.465
AO-85 24 May 04:49:23 04:52:44 23° 113° (ESE) 04:55:58 145.980
CUBESAT XI-V 24 May 04:50:22 04:55:05 86° 77° (ENE) 04:59:49 437.345
Tancredo 1 24 May 04:53:00 04:55:43 29° 225° (SW) 04:58:25 437.200
ISS 24 May 04:55:59 04:59:10 47° 222° (SW) 05:02:18 437.550
ITAMSAT 1 24 May 05:06:16 05:11:16 47° 289° (WNW) 05:16:14 435.822/435.867
AO-7 24 May 05:12:30 05:20:51 76° 291° (WNW) 05:29:11 .
KKS-1 24 May 05:27:08 05:31:19 41° 261° (W) 05:35:30 437.445
O/OREOS (USA 219) 24 May 05:39:51 05:44:03 34° 298° (WNW) 05:48:15 437.305
PCSat 24 May 05:57:42 06:03:01 56° 246° (WSW) 06:08:17 145.827
BEESAT 3 24 May 06:02:08 06:05:50 41° 116° (ESE) 06:09:37 437.485
RS-15 24 May 06:04:42 06:14:54 29° 332° (NNW) 06:25:10 29.354- 29.394
STARS 24 May 06:06:22 06:10:21 35° 262° (W) 06:14:22 437.465
LilacSat-2 24 May 06:06:54 06:08:47 13° 92° (E) 06:10:38 437.200
AO-85 24 May 06:29:16 06:32:58 31° 308° (NW) 06:36:33 145.980
CUTE-I 24 May 06:41:01 06:45:42 31° 96° (E) 06:50:23 437.470
STRAND 1 24 May 06:42:17 06:46:28 27° 66° (ENE) 06:50:41 437.568
XW-2D 24 May 06:43:18 06:46:52 35° 98° (E) 06:50:24 145.860 - 145.880
DOVE 4 24 May 06:47:17 06:51:26 74° 102° (ESE) 06:55:40 437.250
XW-2B 24 May 06:51:04 06:54:46 42° 99° (E) 06:58:25 145.730 - 145.750
XW-2C 24 May 07:04:28 07:08:19 66° 101° (E) 07:12:07 145.795 - 145.815
XW-2F 24 May 07:05:38 07:09:28 64° 100° (E) 07:13:16 145.980 - 146.000
AO-7 24 May 07:07:18 07:12:15 18° 311° (NW) 07:17:13 .
BEESAT 2 24 May 07:12:40 07:16:37 89° 309° (NW) 07:20:40 435.950
NUDT-PHONESAT 24 May 07:13:28 07:17:15 65° 101° (E) 07:20:59 437.300
KAITUO 1B 24 May 07:18:02 07:21:51 76° 101° (E) 07:25:38 145.475/437.950
SEEDS 24 May 07:35:51 07:37:32 12° 90° (E) 07:39:13 437.485
M-CUBED/EXP-1 PRIME 24 May 07:38:59 07:42:39 28° 66° (ENE) 07:46:08 437.505
LilacSat-2 24 May 07:39:34 07:43:15 41° 287° (WNW) 07:46:54 437.200
BEESAT 3 24 May 07:40:42 07:43:36 19° 314° (NW) 07:46:33 437.485
SO-50 24 May 07:42:08 07:46:21 37° 51° (NE) 07:50:32 436.795
HO-68 24 May 07:49:05 07:55:39 36° 97° (E) 08:02:09 435.675
CUTE 1.7 + AOD 2 24 May 08:14:46 08:18:59 55° 100° (E) 08:23:08 437.475
XW-2D 24 May 08:18:23 08:20:45 16° 293° (WNW) 08:23:06 145.860 - 145.880
STRAND 1 24 May 08:20:50 08:25:28 36° 263° (W) 08:30:09 437.568
CUTE-I 24 May 08:20:59 08:25:42 33° 292° (WNW) 08:30:24 437.470
CUBEBUG 2 24 May 08:23:58 08:28:09 35° 97° (E) 08:32:25 437.445
RS-15 24 May 08:24:26 08:33:17 21° 8° (N) 08:41:58 29.354- 29.394
ZACube-1 24 May 08:25:33 08:27:23 12° 90° (E) 08:29:12 437.345
XW-2B 24 May 08:26:37 08:28:33 13° 294° (WNW) 08:30:28 145.730 - 145.750
XW-2A 24 May 08:27:09 08:30:36 74° 101° (ESE) 08:34:02 145.665 - 145.685
UWE-3 24 May 08:40:13 08:44:19 31° 96° (E) 08:48:26 435.000/436.395/437.385
AAUSAT CUBESAT 2 24 May 08:42:08 08:45:53 32° 97° (E) 08:49:35 437.432
BEESAT 2 24 May 08:53:45 08:55:00 11° 320° (NW) 08:56:15 435.950
PRISM 24 May 08:54:25 08:56:42 14° 64° (ENE) 08:58:58 437.425
TIGRISAT 24 May 09:02:38 09:04:25 12° 63° (ENE) 09:06:11 435.000
SEEDS 24 May 09:09:25 09:13:32 53° 286° (WNW) 09:17:37 437.485
M-CUBED/EXP-1 PRIME 24 May 09:13:26 09:17:01 25° 258° (WSW) 09:20:25 437.505
SO-50 24 May 09:22:59 09:26:36 24° 248° (WSW) 09:30:13 436.795
Oscar 11 24 May 09:24:08 09:28:11 37° 98° (E) 09:32:11 .
UNISAT 6 24 May 09:31:24 09:35:01 27° 69° (ENE) 09:38:41 437.425
HO-68 24 May 09:36:41 09:43:22 43° 295° (WNW) 09:50:02 435.675
NO-84 24 May 09:37:30 09:41:50 62° 133° (SE) 09:46:02 435.350 FM
FO-29 24 May 09:43:07 09:47:56 40° 69° (ENE) 09:52:48 435.910
AO-73 24 May 09:47:05 09:51:39 87° 101° (E) 09:56:14 145.935
CUTE 1.7 + AOD 2 24 May 09:52:20 09:54:19 13° 296° (WNW) 09:56:16 437.475
ZACube-1 24 May 09:59:31 10:04:01 62° 285° (WNW) 10:08:32 437.345
CUBEBUG 2 24 May 10:01:00 10:04:33 23° 292° (WNW) 10:08:10 437.445
EO-88 24 May 10:09:13 10:12:01 20° 95° (E) 10:14:49 145.990 - 145.960
UWE-3 24 May 10:16:54 10:20:36 25° 291° (WNW) 10:24:21 435.000/436.395/437.385
AAUSAT CUBESAT 2 24 May 10:18:06 10:21:07 20° 292° (WNW) 10:24:05 437.432
PRISM 24 May 10:27:35 10:31:34 47° 260° (W) 10:35:34 437.425
TIGRISAT 24 May 10:36:23 10:40:33 59° 259° (W) 10:44:49 435.000
RS-15 24 May 10:38:55 10:50:26 43° 41° (NE) 11:01:25 29.354- 29.394
DELFI C3 24 May 11:00:03 11:03:56 60° 285° (WNW) 11:07:47 145.870
Oscar 11 24 May 11:00:55 11:04:02 19° 293° (WNW) 11:07:08 .
LO-87 24 May 11:02:45 11:03:42 11° 92° (E) 11:04:37 145.935 - 145.965
UNISAT 6 24 May 11:08:13 11:11:41 24° 265° (W) 11:15:12 437.425
NO-84 24 May 11:16:07 11:19:42 25° 330° (NNW) 11:23:10 435.350 FM
NANOSAT C BR1 24 May 11:19:55 11:23:21 25° 69° (ENE) 11:26:47 145.865
POLYITAN 1 24 May 11:21:43 11:25:20 29° 70° (ENE) 11:28:59 437.675
YUBILEINY 24 May 11:26:28 11:32:50 21° 65° (ENE) 11:39:10 435.215
FO-29 24 May 11:29:18 11:33:15 22° 266° (W) 11:37:14 435.910
QB50P2 24 May 11:29:54 11:33:48 39° 72° (ENE) 11:37:44 145.880/145.840
DUCHIFAT 1 24 May 11:31:49 11:35:28 30° 70° (ENE) 11:39:08 145.980
AIST 2D 24 May 11:39:48 11:43:17 80° 258° (WSW) 11:46:50 435.315
EO-88 24 May 11:42:38 11:45:38 24° 290° (WNW) 11:48:37 145.990 - 145.960
BUGSAT 1 24 May 12:01:18 12:04:11 19° 67° (ENE) 12:07:05 437.445
EO-79 24 May 12:07:41 12:11:51 81° 258° (WSW) 12:16:04 145.935-145.965
Oscar 19 24 May 12:12:08 12:14:28 13° 60° (ENE) 12:16:47 437.125/150
SPROUT 24 May 12:13:49 12:15:15 11° 91° (E) 12:16:40 437.525
ESTCUBE 1 24 May 12:27:01 12:31:32 69° 102° (ESE) 12:36:00 437.505/2401.250
LO-87 24 May 12:33:58 12:37:19 40° 286° (WNW) 12:40:40 145.935 - 145.965
RS-15 24 May 12:51:42 13:03:39 66° 246° (WSW) 13:14:58 29.354- 29.394
NANOSAT C BR1 24 May 12:55:31 12:58:58 25° 264° (W) 13:02:27 145.865
POLYITAN 1 24 May 12:57:52 13:01:06 22° 265° (W) 13:04:23 437.675
NO-84 24 May 12:57:55 12:58:30 10° 350° (N) 12:59:06 435.350 FM
Gurwin Techsat 1B 24 May 13:06:35 13:10:53 26° 66° (ENE) 13:15:12 435.225
QB50P2 24 May 13:07:07 13:09:45 16° 267° (W) 13:12:23 145.880/145.840
DUCHIFAT 1 24 May 13:08:01 13:11:08 20° 266° (W) 13:14:18 145.980
AO-85 24 May 13:20:32 13:23:23 18° 47° (NE) 13:26:19 145.980
YUBILEINY 24 May 13:21:49 13:30:41 82° 266° (W) 13:39:31 435.215
VELOX 1 24 May 13:33:55 13:38:20 87° 283° (WNW) 13:42:43 145.980
BUGSAT 1 24 May 13:35:48 13:39:21 30° 263° (W) 13:42:55 437.445
SPROUT 24 May 13:47:17 13:51:29 58° 286° (WNW) 13:55:41 437.525
Oscar 19 24 May 13:47:51 13:53:03 82° 256° (WSW) 13:58:18 437.125/150
ESTCUBE 1 24 May 14:06:01 14:07:43 12° 298° (WNW) 14:09:24 437.505/2401.250
